Content
SEND FEEDBACK

Daily
Averages
Monthly
Summary
Mauritania

PORT-ETIENNE, MAURITANIA


Home > Africa > Mauritania
Elevation: 10 feet     Latitude: 20 54N     Longitude: 017 06W

WEATHER
 
SELECT A DAY
Number of Records: 122,733;   Date Range: 7/1/96 - 12/17/14
 
SHARE

PRINT THIS DATA

[ ← Previous Day ]
WEATHER ALMANAC - APRIL 1, 2013
[ Next Day → ]
[ °C ]   °F
Weather ElementAverageHighLow
Temperature69.8 °F85 °F (12:00 pm)64 °F (6:00 am)
Dewpoint61 °F64 °F (3:00 pm)54 °F (3:00 am)
Humidity74 %88 % (5:00 am)28 % (12:00 pm)
Barometer29.92 in29.95 in (9:00 am)29.86 in (5:00 pm)
Wind Speed15.4 mph26.5 mph (3:00 pm)
Weather ElementAverage
Visibility4.7 mi
Wind DirectionNW (314 °)

Weather ElementTotal
Precipitation---
Cooling Degree Days9.5 (Base 65)
Growing Degree Days24.5 (Base 50)
Averaged from 30 records on April 1, 2013
WEATHER CONDITIONS BREAKOUT
WIND DIRECTION BREAKOUT
WEATHER BY HOUR - APRIL 1, 2013
[ °C ]   °F
Local TimeTemperatureDewpointHumidityBarometerVisibilityWind DirectionWind SpeedGust SpeedPrecipitationEventsConditions
12:00 AM68.0 °F62.6 °F83 %29.92 in5.0 miNorth (360°)13.8 mph
1:00 AM66.2 °F60.8 °F83 %29.92 in5.0 miNNW (340°)10.4 mph
2:00 AM66.2 °F60.8 °F83 %29.92 in5.0 miNNW (340°)10.4 mph
3:00 AM65.0 °F54.0 °F59 %29.91 in5.0 miNNW (340°)11.5 mph
3:00 AM66.2 °F60.8 °F83 %29.89 in5.0 miNNW (340°)12.7 mph
4:00 AM66.2 °F60.8 °F83 %29.89 in5.0 miNorth (360°)11.5 mph
5:00 AM64.4 °F60.8 °F88 %29.89 in5.0 miNNW (340°)10.4 mph
6:00 AM64.4 °F59.0 °F83 %29.89 in5.0 miNNW (340°)12.7 mph
6:00 AM64.0 °F61.0 °F87 %29.91 in5.0 miNorth11.5 mph
7:00 AM64.4 °F59.0 °F83 %29.92 in5.0 miNNW (340°)11.5 mph
8:00 AM64.4 °F59.0 °F83 %29.92 in5.0 miNorth (360°)12.7 mph
9:00 AM67.0 °F62.0 °F79 %29.95 in5.0 miNorth (350°)17.3 mph
9:00 AM68.0 °F60.8 °F78 %29.92 in5.0 miNorth (350°)17.3 mph
10:00 AM73.4 °F60.8 °F65 %29.95 in5.0 miNorth (350°)15.0 mph
11:00 AM78.8 °F60.8 °F54 %29.95 in5.0 miNorth (360°)15.0 mph
12:00 PM84.2 °F57.2 °F40 %29.95 in5.0 miNorth (360°)12.7 mph
12:00 PM85.0 °F57.0 °F28 %29.95 in5.0 miNorth (10°)12.7 mph
1:00 PM78.8 °F62.6 °F57 %29.92 in5.0 miNW (310°)11.5 mph
2:00 PM78.8 °F62.6 °F57 %29.89 in5.0 miNW (310°)11.5 mph
3:00 PM73.0 °F64.0 °F65 %29.91 in4.0 miNW (310°)24.2 mphBlowing Sand
3:00 PM71.6 °F62.6 °F73 %29.89 in3.7 miWNW (300°)26.5 mphLow Drifting Sand
4:00 PM71.6 °F62.6 °F73 %29.89 in3.7 miNW (320°)21.9 mphLow Drifting Sand
5:00 PM71.6 °F62.6 °F73 %29.86 in3.7 miNW (320°)20.7 mphLow Drifting Sand
6:00 PM69.8 °F62.6 °F78 %29.89 in3.7 miNW (320°)20.7 mphLow Drifting Sand
6:00 PM71.0 °F64.0 °F71 %29.90 in4.0 miNNW (330°)21.9 mphBlowing Sand
7:00 PM68.0 °F62.6 °F83 %29.89 in4.3 miNNW (330°)18.4 mphLow Drifting Sand
9:00 PM66.0 °F63.0 °F88 %29.94 in5.0 miNNW (330°)17.3 mph
9:00 PM66.2 °F62.6 °F88 %29.92 in4.3 miNNW (330°)17.3 mphLow Drifting Sand
10:00 PM66.2 °F60.8 °F83 %29.95 in5.0 miNNW (330°)15.0 mph
11:00 PM64.4 °F60.8 °F88 %29.95 in5.0 miNNW (340°)16.1 mph
Hourly data recorded from GQPP, located miles away from Port-Etienne, Mauritania







STORIES FROM OUR PARTNERS